Weather History for Cincinnati, OH

Change the Weather History Date:

Thursday, December 26, 2013

  Actual Average Record
Temperature  
Mean Temperature 34 °F -  
Max Temperature 41 °F 37 °F 63 °F (1982)
Min Temperature 28 °F 22 °F 2 °F (1983)
Degree Days  
Heating Degree Days 30    
Moisture  
Dew Point 23 °F    
Average Humidity 66    
Maximum Humidity 85    
Minimum Humidity 43    
Precipitation  
Precipitation 0.00 in - - ()
Sea Level Pressure  
Sea Level Pressure 30.33 in    
Wind  
Wind Speed 9 mph (WSW)    
Max Wind Speed 17 mph    
Max Gust Speed 29 mph    
Visibility 10 miles    
Events      
Averages and records for this station are not official NWS values.
T = Trace of Precipitation, MM = Missing Value Source: NWS Daily Summary

Daily Weather History Graph

Daily Weather History Graph

Search for Another Location

Airport:

Trip Planner

Search our weather history database for the weather conditions in past years. The results will help you decide how hot, cold, wet, or windy it might be!

Date:

Astronomy

Dec. 26, 2013 Rise Set
Actual Time 7:55 AM EST 5:21 PM EST
Civil Twilight 7:25 AM EST 5:51 PM EST
Nautical Twilight 6:51 AM EST 6:25 PM EST
Astronomical Twilight 6:19 AM EST 6:57 PM EST
Moon 1:25 AM EST (12/26) 12:54 PM EST (12/26)
Length of Visible Light 10h 26m
Length of Day
9h 25m
Last Quarter, 38% of the Moon is Illuminated
Dec 26
Last Quarter
Jan 1
New
Jan 7
First Quarter
Jan 15
Full
Jan 24
Last Quarter

Hourly Weather History & Observations

Time (EST) Temp. Windchill Dew Point Humidity Pressure Visibility Wind Dir Wind Speed Gust Speed Precip Events Conditions
12:53 AM 35.1 °F 27.4 °F 21.0 °F 57% 30.22 in 10.0 mi WSW 10.4 mph - N/A   Overcast
1:53 AM 34.0 °F 23.4 °F 24.1 °F 67% 30.22 in 10.0 mi WSW 17.3 mph - N/A   Overcast
2:08 AM 33.8 °F 26.4 °F 24.8 °F 70% 30.22 in 10.0 mi WSW 9.2 mph - N/A   Overcast
2:53 AM 34.0 °F 26.6 °F 25.0 °F 70% 30.24 in 10.0 mi West 9.2 mph - N/A   Overcast
3:53 AM 34.0 °F 23.8 °F 26.1 °F 73% 30.25 in 10.0 mi West 16.1 mph 28.8 mph N/A   Overcast
4:53 AM 33.1 °F 24.4 °F 26.1 °F 75% 30.26 in 10.0 mi WSW 11.5 mph 18.4 mph N/A   Overcast
5:53 AM 34.0 °F 25.5 °F 26.1 °F 73% 30.28 in 10.0 mi West 11.5 mph - N/A   Overcast
6:36 AM 33.8 °F 25.3 °F 24.8 °F 70% 30.28 in 10.0 mi West 11.5 mph 23.0 mph N/A   Mostly Cloudy
6:53 AM 33.1 °F 24.4 °F 21.9 °F 64% 30.30 in 10.0 mi West 11.5 mph - N/A   Partly Cloudy
7:53 AM 32.0 °F 23.0 °F 21.0 °F 64% 30.33 in 10.0 mi West 11.5 mph - N/A   Scattered Clouds
8:53 AM 32.0 °F 24.2 °F 21.9 °F 66% 30.36 in 10.0 mi West 9.2 mph - N/A   Clear
9:53 AM 34.0 °F 27.2 °F 21.9 °F 61% 30.39 in 10.0 mi West 8.1 mph - N/A   Clear
10:53 AM 35.1 °F 26.9 °F 19.9 °F 54% 30.40 in 10.0 mi WSW 11.5 mph - N/A   Clear
11:53 AM 37.0 °F 30.4 °F 21.0 °F 52% 30.39 in 10.0 mi West 9.2 mph - N/A   Clear
12:53 PM 39.0 °F 33.4 °F 21.9 °F 50% 30.38 in 10.0 mi SW 8.1 mph - N/A   Clear
1:53 PM 39.9 °F 34.5 °F 21.0 °F 47% 30.37 in 10.0 mi West 8.1 mph - N/A   Clear
2:53 PM 39.9 °F 34.5 °F 21.0 °F 47% 30.36 in 10.0 mi West 8.1 mph - N/A   Clear
3:53 PM 41.0 °F 35.8 °F 19.9 °F 43% 30.36 in 10.0 mi West 8.1 mph - N/A   Clear
4:53 PM 37.9 °F 32.7 °F 19.9 °F 48% 30.37 in 10.0 mi WSW 6.9 mph - N/A   Clear
5:53 PM 32.0 °F - 21.9 °F 66% 30.38 in 10.0 mi Calm Calm - N/A   Clear
6:53 PM 30.0 °F - 25.0 °F 82% 30.38 in 10.0 mi Calm Calm - N/A   Clear
7:53 PM 30.0 °F - 25.0 °F 82% 30.38 in 10.0 mi Calm Calm - N/A   Mostly Cloudy
8:53 PM 28.9 °F - 24.1 °F 82% 30.39 in 10.0 mi Calm Calm - N/A   Clear
9:53 PM 28.9 °F - 25.0 °F 85% 30.38 in 10.0 mi Calm Calm - N/A   Mostly Cloudy
10:53 PM 30.0 °F - 26.1 °F 85% 30.39 in 10.0 mi Calm Calm - N/A   Overcast
11:53 PM 30.0 °F - 25.0 °F 82% 30.38 in 10.0 mi Calm Calm - N/A   Scattered Clouds